| time (UTC) | temp F | wind direction | speed MPH | gust MPH | rain 1hr in | rain 24hr in | rain mn in | humidity % | barometer mb |
| 20260503223604 | 75 | 97 | 5.0 | 15.0 | 0.00 | 0.00 | 0.00 | 20 | 986.5 |
| 20260503222704 | 77 | 95 | 5.0 | 19.0 | 0.00 | 0.00 | 0.00 | 16 | 986.6 |
| 20260503221803 | 78 | 91 | 2.0 | 11.0 | 0.00 | 0.00 | 0.00 | 17 | 986.6 |
| 20260503220903 | 77 | 101 | 0.0 | 4.0 | 0.00 | 0.00 | 0.00 | 18 | 986.9 |
| 20260503220217 | 76 | 87 | 4.0 | 11.0 | 0.00 | 0.00 | 0.00 | 17 | 987.0 |
| 20260503215403 | 76 | 91 | 5.0 | 17.0 | 0.00 | 0.00 | 0.00 | 19 | 987.3 |
| 20260503214503 | 77 | 90 | 1.0 | 5.0 | 0.00 | 0.00 | 0.00 | 17 | 987.4 |
| 20260503213818 | 77 | 77 | 0.0 | 2.0 | 0.00 | 0.00 | 0.00 | 15 | 987.6 |
| 20260503212704 | 77 | 60 | 1.0 | 7.0 | 0.00 | 0.00 | 0.00 | 18 | 987.9 |
| 20260503211803 | 77 | 264 | 1.0 | 4.0 | 0.00 | 0.00 | 0.00 | 15 | 988.1 |
| 20260503211118 | 75 | 97 | 2.0 | 7.0 | 0.00 | 0.00 | 0.00 | 16 | 988.5 |
| 20260503210003 | 76 | 43 | 1.0 | 8.0 | 0.00 | 0.00 | 0.00 | 14 | 988.7 |
| 20260503205403 | 77 | 238 | 1.0 | 8.0 | 0.00 | 0.00 | 0.00 | 15 | 988.8 |
| 20260503204503 | 75 | 250 | 5.0 | 11.0 | 0.00 | 0.00 | 0.00 | 17 | 989.1 |
| 20260503203603 | 74 | 219 | 3.0 | 8.0 | 0.00 | 0.00 | 0.00 | 16 | 989.3 |
| 20260503202703 | 74 | 255 | 5.0 | 13.0 | 0.00 | 0.00 | 0.00 | 16 | 989.6 |
| 20260503201803 | 74 | 236 | 7.0 | 15.0 | 0.00 | 0.00 | 0.00 | 17 | 989.8 |
| 20260503200904 | 73 | 233 | 8.0 | 18.0 | 0.00 | 0.00 | 0.00 | 15 | 990.0 |
| 20260503200003 | 73 | 229 | 7.0 | 18.0 | 0.00 | 0.00 | 0.00 | 16 | 990.1 |
| 20260503195403 | 72 | 222 | 5.0 | 10.0 | 0.00 | 0.00 | 0.00 | 17 | 990.2 |
| 20260503194503 | 73 | 240 | 6.0 | 14.0 | 0.00 | 0.00 | 0.00 | 16 | 990.4 |
| 20260503193603 | 72 | 230 | 4.0 | 8.0 | 0.00 | 0.00 | 0.00 | 18 | 990.5 |
| 20260503192703 | 72 | 246 | 7.0 | 15.0 | 0.00 | 0.00 | 0.00 | 17 | 990.7 |
| 20260503191803 | 72 | 247 | 6.0 | 14.0 | 0.00 | 0.00 | 0.00 | 16 | 990.9 |
| 20260503190903 | 72 | 248 | 6.0 | 15.0 | 0.00 | 0.00 | 0.00 | 18 | 991.0 |
| 20260503190004 | 71 | 295 | 4.0 | 10.0 | 0.00 | 0.00 | 0.00 | 19 | 991.1 |
| 20260503185403 | 71 | 285 | 5.0 | 11.0 | 0.00 | 0.00 | 0.00 | 18 | 991.3 |
| 20260503184503 | 71 | 215 | 3.0 | 12.0 | 0.00 | 0.00 | 0.00 | 19 | 991.5 |
| 20260503183817 | 71 | 232 | 6.0 | 12.0 | 0.00 | 0.00 | 0.00 | 16 | 991.7 |
| 20260503182703 | 71 | 227 | 7.0 | 18.0 | 0.00 | 0.00 | 0.00 | 17 | 991.9 |
| 20260503181804 | 70 | 234 | 6.0 | 12.0 | 0.00 | 0.00 | 0.00 | 19 | 992.0 |
| 20260503180904 | 70 | 250 | 5.0 | 12.0 | 0.00 | 0.00 | 0.00 | 19 | 992.2 |
| 20260503180004 | 70 | 229 | 7.0 | 13.0 | 0.00 | 0.00 | 0.00 | 18 | 992.3 |
| 20260503175404 | 70 | 245 | 8.0 | 17.0 | 0.00 | 0.00 | 0.00 | 18 | 992.6 |
| 20260503174503 | 70 | 245 | 7.0 | 16.0 | 0.00 | 0.00 | 0.00 | 19 | 992.7 |
| 20260503173603 | 69 | 258 | 6.0 | 12.0 | 0.00 | 0.00 | 0.00 | 20 | 992.8 |
| 20260503172703 | 69 | 288 | 4.0 | 12.0 | 0.00 | 0.00 | 0.00 | 20 | 993.1 |
| 20260503171803 | 68 | 294 | 5.0 | 10.0 | 0.00 | 0.00 | 0.00 | 21 | 993.3 |
| 20260503170903 | 68 | 297 | 4.0 | 10.0 | 0.00 | 0.00 | 0.00 | 21 | 993.4 |
| 20260503150903 | 63 | 295 | 8.0 | 15.0 | 0.00 | 0.00 | 0.00 | 32 | 995.4 |
| 20260503150217 | 62 | 298 | 7.0 | 15.0 | 0.00 | 0.00 | 0.00 | 30 | 995.5 |
| 20260503140218 | 56 | 307 | 9.0 | 15.0 | 0.00 | 0.00 | 0.00 | 37 | 996.2 |
| 20260503130903 | 52 | 307 | 5.0 | 10.0 | 0.00 | 0.00 | 0.00 | 43 | 996.1 |
| 20260503080903 | 52 | 300 | 8.0 | 17.0 | 0.00 | 0.00 | 0.00 | 37 | 996.0 |
| 20260503072703 | 52 | 303 | 8.0 | 13.0 | 0.00 | 0.00 | 0.00 | 39 | 996.3 |
| 20260503071803 | 52 | 306 | 8.0 | 13.0 | 0.00 | 0.00 | 0.00 | 38 | 996.4 |
| 20260503070903 | 52 | 307 | 8.0 | 13.0 | 0.00 | 0.00 | 0.00 | 39 | 996.4 |
| 20260503054503 | 48 | 18 | 1.0 | 3.0 | 0.00 | 0.00 | 0.00 | 54 | 996.4 |
| 20260503053818 | 48 | 18 | 0.0 | 3.0 | 0.00 | 0.00 | 0.00 | 53 | 996.4 |
| 20260503052704 | 49 | 18 | 1.0 | 3.0 | 0.00 | 0.00 | 0.00 | 49 | 996.3 |
| 20260503052016 | 49 | 21 | 2.0 | 4.0 | 0.00 | 0.00 | 0.00 | 50 | 996.4 |
| 20260503050903 | 50 | 23 | 0.0 | 3.0 | 0.00 | 0.00 | 0.00 | 48 | 996.4 |
| 20260503050004 | 51 | 23 | 1.0 | 2.0 | 0.00 | 0.00 | 0.00 | 48 | 996.4 |
| 20260503045403 | 51 | 23 | 1.0 | 3.0 | 0.00 | 0.00 | 0.00 | 45 | 996.4 |
| 20260503044503 | 52 | 23 | 1.0 | 3.0 | 0.00 | 0.00 | 0.00 | 43 | 996.5 |
| 20260503043818 | 53 | 24 | 1.0 | 3.0 | 0.00 | 0.00 | 0.00 | 40 | 996.4 |
| 20260503042703 | 54 | 297 | 2.0 | 7.0 | 0.00 | 0.00 | 0.00 | 40 | 996.4 |
| 20260503041803 | 54 | 261 | 3.0 | 8.0 | 0.00 | 0.00 | 0.00 | 38 | 996.5 |
| 20260503040904 | 56 | 246 | 3.0 | 8.0 | 0.00 | 0.00 | 0.00 | 38 | 996.4 |
| 20260503040003 | 57 | 70 | 4.0 | 11.0 | 0.00 | 0.00 | 0.00 | 30 | 996.4 |
| 20260503035403 | 57 | 71 | 4.0 | 11.0 | 0.00 | 0.00 | 0.00 | 28 | 996.4 |
| 20260503034503 | 56 | 59 | 4.0 | 9.0 | 0.00 | 0.00 | 0.00 | 30 | 996.4 |
| 20260503033603 | 54 | 52 | 4.0 | 9.0 | 0.00 | 0.00 | 0.00 | 33 | 996.5 |
| 20260503032703 | 55 | 116 | 1.0 | 3.0 | 0.00 | 0.00 | 0.00 | 39 | 996.4 |
| 20260503031803 | 56 | 126 | 1.0 | 2.0 | 0.00 | 0.00 | 0.00 | 39 | 996.3 |
| 20260503030903 | 58 | 126 | 1.0 | 2.0 | 0.00 | 0.00 | 0.00 | 34 | 996.3 |
| 20260503030004 | 59 | 126 | 1.0 | 4.0 | 0.00 | 0.00 | 0.00 | 29 | 996.3 |
| 20260503025403 | 60 | 136 | 2.0 | 4.0 | 0.00 | 0.00 | 0.00 | 28 | 996.3 |
| 20260503024718 | 60 | 137 | 1.0 | 4.0 | 0.00 | 0.00 | 0.00 | 29 | 996.2 |
| 20260503023603 | 61 | 83 | 3.0 | 5.0 | 0.00 | 0.00 | 0.00 | 27 | 996.0 |
| 20260503022703 | 61 | 82 | 3.0 | 7.0 | 0.00 | 0.00 | 0.00 | 27 | 995.9 |
| 20260503021803 | 62 | 78 | 3.0 | 5.0 | 0.00 | 0.00 | 0.00 | 26 | 995.8 |
| 20260503020904 | 63 | 90 | 4.0 | 8.0 | 0.00 | 0.00 | 0.00 | 23 | 995.6 |
| 20260503020218 | 64 | 96 | 5.0 | 9.0 | 0.00 | 0.00 | 0.00 | 22 | 995.6 |
| 20260503015403 | 65 | 102 | 5.0 | 9.0 | 0.00 | 0.00 | 0.00 | 22 | 995.5 |
| 20260503014717 | 65 | 104 | 7.0 | 11.0 | 0.00 | 0.00 | 0.00 | 21 | 995.4 |
| 20260503013603 | 66 | 104 | 7.0 | 11.0 | 0.00 | 0.00 | 0.00 | 21 | 995.4 |
| 20260503012703 | 66 | 117 | 4.0 | 11.0 | 0.00 | 0.00 | 0.00 | 21 | 995.3 |
| 20260503011803 | 69 | 237 | 1.0 | 8.0 | 0.00 | 0.00 | 0.00 | 20 | 995.3 |
| 20260503010903 | 70 | 233 | 1.0 | 7.0 | 0.00 | 0.00 | 0.00 | 20 | 995.2 |
| 20260503010003 | 70 | 245 | 1.0 | 4.0 | 0.00 | 0.00 | 0.00 | 20 | 995.3 |
| 20260503005403 | 71 | 250 | 1.0 | 8.0 | 0.00 | 0.00 | 0.00 | 20 | 995.2 |
| 20260503004504 | 71 | 248 | 2.0 | 6.0 | 0.00 | 0.00 | 0.00 | 20 | 995.2 |
| 20260503003603 | 72 | 239 | 1.0 | 6.0 | 0.00 | 0.00 | 0.00 | 20 | 995.3 |
| 20260503002703 | 72 | 230 | 1.0 | 5.0 | 0.00 | 0.00 | 0.00 | 20 | 995.4 |
| 20260503001803 | 72 | 244 | 1.0 | 6.0 | 0.00 | 0.00 | 0.00 | 20 | 995.5 |
| 20260503001118 | 72 | 262 | 2.0 | 6.0 | 0.00 | 0.00 | 0.00 | 19 | 995.6 |
| 20260503000003 | 73 | 244 | 2.0 | 8.0 | 0.00 | 0.00 | 0.00 | 19 | 995.7 |
| 20260502235403 | 73 | 239 | 2.0 | 8.0 | 0.00 | 0.00 | 0.00 | 20 | 995.7 |
| 20260502234503 | 73 | 241 | 1.0 | 8.0 | 0.00 | 0.00 | 0.00 | 20 | 995.8 |
| 20260502233604 | 73 | 272 | 2.0 | 8.0 | 0.00 | 0.00 | 0.00 | 19 | 995.8 |
| 20260502232703 | 74 | 260 | 1.0 | 6.0 | 0.00 | 0.00 | 0.00 | 19 | 995.9 |
| 20260502231803 | 74 | 241 | 1.0 | 9.0 | 0.00 | 0.00 | 0.00 | 18 | 996.0 |
| 20260502230903 | 73 | 241 | 2.0 | 6.0 | 0.00 | 0.00 | 0.00 | 18 | 996.1 |
| 20260502230003 | 73 | 243 | 2.0 | 8.0 | 0.00 | 0.00 | 0.00 | 18 | 996.1 |
| 20260502225403 | 73 | 270 | 2.0 | 5.0 | 0.00 | 0.00 | 0.00 | 18 | 996.2 |
| 20260502224503 | 73 | 284 | 2.0 | 13.0 | 0.00 | 0.00 | 0.00 | 17 | 996.2 |